| time (UTC) | temp F | wind direction | speed knots | gust knots | rain 1hr in | rain 24hr in | rain mn in | humidity % | barometer mb |
| 20260507160020 | 62 | 61 | 2.6 | 8.7 | 0.00 | 0.00 | 0.00 | 74 | 1014.4 |
| 20260507154612 | 62 | 90 | 0.0 | 7.8 | 0.00 | 0.00 | 0.00 | 73 | 1014.5 |
| 20260507153028 | 61 | 92 | 0.9 | 8.7 | 0.00 | 0.00 | 0.00 | 73 | 1014.7 |
| 20260507151510 | 62 | 75 | 0.9 | 7.8 | 0.00 | 0.00 | 0.00 | 72 | 1014.8 |
| 20260507150008 | 62 | 63 | 0.9 | 7.8 | 0.00 | 0.00 | 0.00 | 71 | 1014.8 |
| 20260507144507 | 62 | 96 | 1.7 | 7.8 | 0.00 | 0.00 | 0.00 | 70 | 1014.9 |
| 20260507143012 | 63 | 112 | 0.0 | 8.7 | 0.00 | 0.00 | 0.00 | 69 | 1014.8 |
| 20260507141505 | 63 | 75 | 2.6 | 10.4 | 0.00 | 0.00 | 0.00 | 69 | 1015.0 |
| 20260507140009 | 63 | 65 | 1.7 | 9.6 | 0.00 | 0.00 | 0.00 | 68 | 1015.0 |
| 20260507134503 | 62 | 129 | 5.2 | 8.7 | 0.00 | 0.00 | 0.00 | 67 | 1015.4 |
| 20260507133002 | 62 | 69 | 1.7 | 9.6 | 0.00 | 0.00 | 0.00 | 68 | 1015.6 |
| 20260507131501 | 62 | 147 | 2.6 | 8.7 | 0.00 | 0.00 | 0.00 | 69 | 1015.7 |
| 20260507130100 | 62 | 98 | 0.9 | 8.7 | 0.00 | 0.00 | 0.00 | 71 | 1015.7 |
| 20260507130001 | 62 | 101 | 2.6 | 8.7 | 0.00 | 0.00 | 0.00 | 71 | 1015.8 |
| 20260507124606 | 62 | 122 | 0.9 | 8.7 | 0.00 | 0.00 | 0.00 | 72 | 1016.0 |
| 20260507123100 | 62 | 38 | 2.6 | 10.4 | 0.00 | 0.00 | 0.00 | 71 | 1016.1 |
| 20260507121559 | 62 | 176 | 1.7 | 9.6 | 0.00 | 0.00 | 0.00 | 72 | 1016.0 |
| 20260507120059 | 62 | 125 | 0.9 | 9.6 | 0.00 | 0.00 | 0.00 | 71 | 1016.2 |
| 20260507114559 | 62 | 59 | 1.7 | 10.4 | 0.00 | 0.00 | 0.00 | 71 | 1016.2 |
| 20260507113101 | 63 | 103 | 0.0 | 8.7 | 0.00 | 0.00 | 0.00 | 70 | 1016.2 |
| 20260507111555 | 63 | 47 | 3.5 | 11.3 | 0.00 | 0.00 | 0.00 | 72 | 1016.1 |
| 20260507110055 | 63 | 90 | 2.6 | 8.7 | 0.00 | 0.00 | 0.00 | 72 | 1016.4 |
| 20260507104552 | 62 | 90 | 1.7 | 9.6 | 0.00 | 0.00 | 0.00 | 72 | 1016.5 |
| 20260507103049 | 61 | 105 | 2.6 | 8.7 | 0.00 | 0.00 | 0.00 | 75 | 1016.7 |
| 20260507101553 | 60 | 116 | 2.6 | 8.7 | 0.00 | 0.00 | 0.00 | 72 | 1016.8 |
| 20260507100048 | 60 | 72 | 0.0 | 8.7 | 0.00 | 0.00 | 0.00 | 75 | 1016.9 |
| 20260507094546 | 60 | 105 | 0.0 | 8.7 | 0.00 | 0.00 | 0.00 | 77 | 1016.8 |
| 20260507093051 | 60 | 75 | 0.0 | 7.0 | 0.00 | 0.00 | 0.00 | 75 | 1016.9 |
| 20260507091544 | 61 | 89 | 2.6 | 8.7 | 0.00 | 0.00 | 0.00 | 76 | 1016.8 |
| 20260507090041 | 60 | 85 | 1.7 | 7.8 | 0.00 | 0.00 | 0.00 | 79 | 1016.7 |
| 20260507084540 | 58 | 101 | 1.7 | 8.7 | 0.00 | 0.00 | 0.00 | 83 | 1016.5 |
| 20260507083038 | 58 | 91 | 1.7 | 7.0 | 0.00 | 0.00 | 0.00 | 84 | 1016.6 |
| 20260507081537 | 58 | 78 | 2.6 | 8.7 | 0.00 | 0.00 | 0.00 | 83 | 1016.6 |
| 20260507080040 | 59 | 119 | 0.0 | 7.0 | 0.00 | 0.00 | 0.00 | 82 | 1016.6 |
| 20260507074536 | 59 | 84 | 0.9 | 8.7 | 0.00 | 0.00 | 0.00 | 81 | 1016.7 |
| 20260507073034 | 59 | 70 | 0.0 | 7.0 | 0.00 | 0.00 | 0.00 | 82 | 1016.6 |
| 20260507071558 | 59 | 98 | 0.0 | 3.5 | 0.00 | 0.00 | 0.00 | 82 | 1016.6 |
| 20260507070033 | 59 | 74 | 0.0 | 5.2 | 0.00 | 0.00 | 0.00 | 81 | 1016.5 |
| 20260507064530 | 58 | 27 | 0.0 | 3.5 | 0.00 | 0.00 | 0.00 | 82 | 1016.2 |
| 20260507063026 | 58 | 15 | 0.0 | 0.0 | 0.00 | 0.00 | 0.00 | 83 | 1016.2 |
| 20260507061525 | 57 | 347 | 0.0 | 2.6 | 0.00 | 0.00 | 0.00 | 83 | 1016.1 |
| 20260507060035 | 57 | 42 | 0.0 | 0.0 | 0.00 | 0.00 | 0.00 | 84 | 1016.0 |
| 20260507054522 | 56 | 286 | 0.0 | 3.5 | 0.00 | 0.00 | 0.00 | 86 | 1015.9 |
| 20260507053022 | 56 | 309 | 0.0 | 0.0 | 0.00 | 0.00 | 0.00 | 87 | 1015.8 |
| 20260507051529 | 55 | 315 | 0.0 | 0.0 | 0.00 | 0.00 | 0.00 | 87 | 1015.7 |
| 20260507050022 | 55 | 321 | 0.0 | 0.0 | 0.00 | 0.00 | 0.00 | 88 | 1015.4 |
| 20260507044521 | 55 | 293 | 0.0 | 0.0 | 0.00 | 0.00 | 0.00 | 87 | 1015.4 |
| 20260507043018 | 55 | 322 | 0.0 | 0.0 | 0.00 | 0.00 | 0.00 | 87 | 1015.4 |
| 20260507041517 | 55 | 306 | 0.0 | 0.0 | 0.00 | 0.00 | 0.00 | 87 | 1015.5 |
| 20260507040017 | 55 | 340 | 0.0 | 0.0 | 0.00 | 0.00 | 0.00 | 86 | 1015.4 |
| 20260507034529 | 55 | 320 | 0.0 | 0.0 | 0.00 | 0.00 | 0.00 | 85 | 1015.4 |
| 20260507033029 | 55 | 317 | 0.0 | 0.0 | 0.00 | 0.00 | 0.00 | 85 | 1015.5 |
| 20260507031513 | 56 | 336 | 0.0 | 0.0 | 0.00 | 0.00 | 0.00 | 84 | 1015.6 |
| 20260507030014 | 55 | 342 | 0.0 | 0.0 | 0.00 | 0.00 | 0.00 | 84 | 1015.5 |
| 20260507024513 | 55 | 347 | 0.0 | 0.0 | 0.00 | 0.00 | 0.00 | 85 | 1015.6 |
| 20260507023020 | 55 | 325 | 0.0 | 0.0 | 0.00 | 0.00 | 0.00 | 86 | 1015.4 |
| 20260507021511 | 55 | 325 | 0.0 | 0.0 | 0.00 | 0.00 | 0.00 | 86 | 1015.5 |
| 20260507020017 | 55 | 340 | 0.0 | 0.0 | 0.00 | 0.00 | 0.00 | 86 | 1015.5 |
| 20260507014512 | 55 | 334 | 0.0 | 0.0 | 0.00 | 0.00 | 0.00 | 87 | 1015.6 |
| 20260507013008 | 56 | 296 | 0.0 | 0.0 | 0.00 | 0.00 | 0.00 | 87 | 1015.6 |
| 20260507011506 | 56 | 301 | 0.0 | 0.0 | 0.00 | 0.00 | 0.00 | 88 | 1015.7 |
| 20260507010004 | 56 | 323 | 0.0 | 0.0 | 0.00 | 0.00 | 0.00 | 88 | 1015.7 |
| 20260507004503 | 56 | 323 | 0.0 | 0.0 | 0.00 | 0.00 | 0.00 | 88 | 1015.8 |
| 20260507003002 | 56 | 313 | 0.0 | 4.3 | 0.00 | 0.00 | 0.00 | 88 | 1015.8 |
| 20260507001604 | 56 | 310 | 0.0 | 2.6 | 0.00 | 0.00 | 0.00 | 87 | 1016.0 |
| 20260506234559 | 57 | 314 | 0.0 | 0.0 | 0.00 | 0.00 | 0.00 | 84 | 1016.2 |
| 20260506233059 | 57 | 311 | 0.0 | 0.0 | 0.00 | 0.00 | 0.00 | 84 | 1016.0 |
| 20260506231558 | 57 | 309 | 0.0 | 4.3 | 0.00 | 0.00 | 0.00 | 83 | 1016.1 |
| 20260506230055 | 57 | 315 | 0.0 | 0.9 | 0.00 | 0.00 | 0.00 | 82 | 1016.0 |
| 20260506224554 | 57 | 126 | 0.0 | 0.0 | 0.00 | 0.00 | 0.00 | 82 | 1016.0 |
| 20260506223053 | 57 | 126 | 0.0 | 0.0 | 0.00 | 0.00 | 0.00 | 82 | 1016.0 |
| 20260506221551 | 57 | 126 | 0.0 | 0.0 | 0.00 | 0.00 | 0.00 | 82 | 1016.0 |
| 20260506220050 | 56 | 126 | 0.0 | 0.0 | 0.00 | 0.00 | 0.00 | 82 | 1016.0 |
| 20260506214601 | 56 | 126 | 0.0 | 0.0 | 0.00 | 0.00 | 0.00 | 82 | 1016.0 |
| 20260506213049 | 57 | 126 | 0.0 | 0.0 | 0.00 | 0.00 | 0.00 | 80 | 1015.9 |
| 20260506211548 | 57 | 126 | 0.0 | 0.0 | 0.00 | 0.00 | 0.00 | 79 | 1016.0 |
| 20260506210047 | 57 | 126 | 0.0 | 0.0 | 0.00 | 0.00 | 0.00 | 77 | 1015.9 |
| 20260506204550 | 58 | 126 | 0.0 | 0.0 | 0.00 | 0.00 | 0.00 | 76 | 1015.7 |
| 20260506203044 | 58 | 126 | 0.0 | 0.0 | 0.00 | 0.00 | 0.00 | 75 | 1015.6 |
| 20260506201542 | 58 | 126 | 0.0 | 0.0 | 0.00 | 0.00 | 0.00 | 73 | 1015.3 |
| 20260506200043 | 59 | 126 | 0.0 | 0.0 | 0.00 | 0.00 | 0.00 | 72 | 1015.3 |
| 20260506194542 | 59 | 169 | 0.0 | 0.9 | 0.00 | 0.00 | 0.00 | 72 | 1015.0 |
| 20260506193039 | 59 | 135 | 0.0 | 0.9 | 0.00 | 0.00 | 0.00 | 71 | 1014.7 |
| 20260506191537 | 59 | 142 | 0.0 | 0.0 | 0.00 | 0.00 | 0.00 | 71 | 1014.5 |
| 20260506190037 | 60 | 146 | 0.0 | 3.5 | 0.00 | 0.00 | 0.00 | 70 | 1014.3 |
| 20260506184535 | 60 | 138 | 0.0 | 2.6 | 0.00 | 0.01 | 0.00 | 68 | 1014.1 |
| 20260506183035 | 61 | 150 | 0.0 | 6.1 | 0.00 | 0.01 | 0.00 | 65 | 1014.0 |
| 20260506181534 | 61 | 142 | 0.0 | 7.8 | 0.00 | 0.01 | 0.00 | 60 | 1013.9 |
| 20260506180036 | 62 | 153 | 0.9 | 5.2 | 0.00 | 0.01 | 0.00 | 57 | 1013.6 |
| 20260506174533 | 62 | 136 | 1.7 | 4.3 | 0.00 | 0.01 | 0.00 | 58 | 1013.6 |
| 20260506173036 | 62 | 221 | 0.0 | 7.8 | 0.00 | 0.01 | 0.00 | 57 | 1013.5 |
| 20260506171532 | 62 | 121 | 0.0 | 4.3 | 0.00 | 0.01 | 0.00 | 59 | 1013.3 |
| 20260506170031 | 63 | 101 | 1.7 | 9.6 | 0.00 | 0.01 | 0.00 | 59 | 1013.2 |
| 20260506164531 | 63 | 146 | 2.6 | 8.7 | 0.00 | 0.01 | 0.00 | 59 | 1013.1 |
| 20260506163032 | 63 | 178 | 4.3 | 9.6 | 0.00 | 0.01 | 0.00 | 59 | 1013.1 |
| 20260506161534 | 64 | 107 | 0.9 | 13.0 | 0.00 | 0.01 | 0.00 | 57 | 1013.2 |